Simultaneous Nadir Overpasses (SNOs) Predictions

Prediction of SNOs between LANDSAT-8 and METOP-A Satellite Orbit:

Table of predicted SNOs for the next 14.0 days since TLE Epoch: 12/17/2016
Index Date (LANDSAT-8) Time (LANDSAT-8) Lat,Lon (LANDSAT-8) SZA (LANDSAT-8 ) Date (METOP-A) Time (METOP-A) Lat,Lon (METOP-A) SZA (METOP-A ) Distance(km) Time Diff (sec)
1 12/19/2016 21:07:28 81.11, -97.19 106.50 12/19/2016 21:06:38 81.12, -97.11 106.50 1.56 50
2 12/19/2016 21:56:54 -81.13, 70.75 73.46 12/19/2016 21:57:18 -81.14, 70.72 73.45 0.79 24
3 12/22/2016 16:41:41 81.11, -30.75 106.47 12/22/2016 16:41:01 81.11, -30.90 106.44 2.58 40
4 12/22/2016 17:31:06 -81.16, 137.58 73.43 12/22/2016 17:31:39 -81.16, 137.69 73.41 1.93 33
5 12/25/2016 12:15:54 81.13, 36.01 106.42 12/25/2016 12:15:23 81.13, 36.04 106.42 0.58 31
6 12/25/2016 13:05:20 -81.16,-155.99 73.53 12/25/2016 13:06:03 -81.15,-156.11 73.53 2.06 43
7 12/28/2016 07:50:08 81.13, 102.37 106.26 12/28/2016 07:49:47 81.13, 102.22 106.23 2.70 21
8 12/28/2016 08:39:34 -81.15, -89.61 73.69 12/28/2016 08:40:26 -81.15, -89.55 73.66 1.08 52
9 12/31/2016 03:24:20 81.14, 169.06 106.08 12/31/2016 03:24:08 81.14, 169.13 106.08 1.21 12




NCC Satellite Simultaneous Nadir Overpasses (SNOs) Prediction Service
